Regional Weather Roundup
Issued by NWS Green Bay, WI

Home | Current Version | Previous Version | Text Only | Print | Product List | Glossary On
Versions: 1 2 3 4 5 6 7 8 9 10 11 12 13 14 15 16 17 18 19 20 21 22 23 24 25 26 27 28 29 30 31 32 33 34 35 36 37 38 39 40 41 42 43 44 45 46 47 48 49 50
000
ASUS43 KGRB 250111
RWRGRB

NORTH-CENTRAL AND NORTHEAST WISCONSIN REGIONAL WEATHER ROUNDUP
NATIONAL WEATHER SERVICE GREEN BAY WI
700 PM CST SAT FEB 24 2018

WIZ005-009-010>012-018-019-250200-
NORTH CENTRAL WISCONSIN

CITY           SKY/WX    TMP DP  RH WIND       PRES   REMARKS
IRONWOOD       FLURRIES  32  21  64 E15       29.72F
MANITOWISH WTR CLOUDY    31  21  66 E10       29.70F
ARBOR VITAE    CLOUDY    32  24  71 E12G23    29.69F
EAGLE RIVER    CLOUDY    30  20  67 SE14G20   29.75F
LAND O LAKES   CLOUDY    31  21  66 E16G30    29.74F
RHINELANDER    CLOUDY    30  23  75 E21G29    29.72F
PHILLIPS       CLOUDY    31  23  72 E13G24    29.63F
ANTIGO         CLOUDY    28  24  86 E23       29.73F
TOMAHAWK       CLOUDY    30  23  74 E9G23     29.69F
MERRILL        LGT SNOW  30  25  82 E14G21    29.70F
$$

WIZ013-073-250200-
NORTHEAST WISCONSIN

CITY           SKY/WX    TMP DP  RH WIND       PRES   REMARKS
IRON MOUNTAIN  CLOUDY    30  21  69 E8        29.82F
MARINETTE      CLOUDY    31  27  85 E15G21    29.85F
OCONTO         CLOUDY    31  27  83 E8G16     29.84F
$$

WIZ017-030-035>037-045-250200-
CENTRAL WISCONSIN

CITY           SKY/WX    TMP DP  RH WIND       PRES   REMARKS
MEDFORD        LGT SNOW  29  26  88 E20G25    29.61F
WAUSAU         LGT SNOW  30  27  86 E16G24    29.68F FOG
MOSINEE        LGT SNOW  30  27  86 E15G29    29.68F
MARSHFIELD     FRZ RAIN  31  28  89 E22G31    29.62F FOG
WISC RAPIDS    FRZ RAIN  32  28  85 E21G26    29.67F FOG
STEVENS POINT  MIX PCPN  29  28  95 E14G25    29.70F
WAUPACA        LGT RAIN  33  28  82 NE13G23   29.74F
SHAWANO        CLOUDY    33  26  78 E15       29.80F
CLINTONVILLE   FLURRIES  32  25  77 E13G24    29.77F
WAUTOMA        FRZ RAIN  31  30  96 E15G24    29.71F FOG
$$

WIZ038-039-048-051-250200-
FOX VALLEY

CITY           SKY/WX    TMP DP  RH WIND       PRES   REMARKS
NWS GREEN BAY  CLOUDY    33  26  75 E10       29.81F
APPLETON       LGT RAIN  32  25  74 E12G20    29.76F
OSHKOSH        LGT RAIN  33  29  85 E15       29.74F
FOND DU LAC    LGT RAIN  34  29  82 E8        29.74F
$$

WIZ022-050-052-250200-
EAST CENTRAL WISCONSIN

CITY           SKY/WX    TMP DP  RH WIND       PRES   REMARKS
EPHRAIM        CLOUDY    32  26  80 E9G21     29.85F
WASHINGTON ISL CLOUDY    32  26  77 E9G20     29.86F
STURGEON BAY   CLOUDY    34  28  79 E12G20    29.83F
MANITOWOC      CLOUDY    36  31  82 E16       29.80F
SHEBOYGAN      LGT RAIN  35  33  92 E12       29.78F FOG
$$

LMZ563-521-522-541>543-250200-
LAKESHORE

STATION/POSITION TIME  TEMP    WIND        PRES    VSBY  WAVE
                       AIR SEA DIR/SP/G                  HT/PER
                 (UTC) (F)     (DEG/KT/KT) (MB)    (MI)  (FT/S)
SHEBOYGAN LKSHOR 0100   36     100/ 23/ 27 1008.7F
KEWAUNEE LKSHORE 0042   36      90/ 11/ 16 1009.7F
NORTHPORT PIER   0040   33                 1011.9F
SISTER BAY LKSHO 0005   32     100/ 10/ 17   N/A
MENOMINEE LKSHOR 0036   31      40/ 19/ 21 1010.9F
$$




USA.gov is the U.S. government's official web portal to all federal, state and local government web resources and services.